Regional Weather Roundup
Issued by NWS

Home | Current Version | Previous Version | Graphics & Text | Print | Product List | Glossary On
Versions: 1 2 3 4 5 6 7 8 9 10 11 12 13 14 15 16 17 18 19 20 21 22 23 24 25 26 27 28 29 30 31 32 33 34 35 36 37 38 39 40 41 42 43 44 45 46 47 48 49 50
000
ASUS43 KMKX 200800
RWRWI

WISCONSIN REGIONAL WEATHER ROUNDUP
NATIONAL WEATHER SERVICE MILWAUKEE/SULLIVAN WI
200 AM CST MON FEB 20 2017

NOTE: "FAIR" INDICATES FEW OR NO CLOUDS BELOW 12,000 FEET WITH NO
SIGNIFICANT WEATHER AND/OR OBSTRUCTIONS TO VISIBILITY.

WIZ001-002-006>008-014>016-023>028-200900-
NORTHWEST WISCONSIN

CITY           SKY/WX    TMP DP  RH WIND       PRES   REMARKS
SUPERIOR ARPT  CLOUDY    35  33  93 E13       29.97S WCI  26
ASHLAND        CLOUDY    35  32  88 N3        29.98S
HAYWARD        PTCLDY    50  34  54 S12G20    29.96R
SIREN          CLOUDY    50  35  56 SE6       29.91R
CUMBERLAND     PTCLDY    43  32  65 SE7       29.93R
RICE LAKE      PTCLDY    46  34  63 SE10      29.95S
CHETEK         PTCLDY    46  35  66 SE12G17   29.96R
LADYSMITH      CLOUDY    49  35  59 SE8       30.00S
EAU CLAIRE     NOT AVBL
MENOMONIE      PTCLDY    44  35  72 E10       29.94F
NEW RICHMOND   CLOUDY    46  36  67 SE6       29.90S
OSCEOLA        CLOUDY    49  38  64 SE10G16   29.91F
$$

WIZ003>005-009-010-017-018-200900-
NORTH CENTRAL WISCONSIN

CITY           SKY/WX    TMP DP  RH WIND       PRES   REMARKS
MANITOWISH WTR PTCLDY    40  32  75 SE7       30.04S WCI  35
ARBOR VITAE    CLOUDY    42  33  72 SE9G16    30.06R
WOODRUFF       CLOUDY    42  33  72 SE9G16    30.06R
RHINELANDER    MOCLDY    38  31  76 E9        30.08R WCI  31
EAGLE RIVER    CLEAR     37  29  71 SE6       30.07S WCI  33
LAND O LAKES   CLEAR     39  31  72 SE7       30.09S WCI  34
PHILLIPS       CLOUDY    43  33  69 SE5       30.01F
TOMAHAWK       CLOUDY    38  30  72 SE3       30.06S
MEDFORD        CLOUDY    42  32  67 SE7       30.03R
MERRILL        NOT AVBL
$$

WIZ029-030-035-036-043>047-200900-
CENTRAL WISCONSIN

CITY           SKY/WX    TMP DP  RH WIND       PRES   REMARKS
WAUSAU         PTCLDY    38  30  73 E8        30.07R WCI  32
MOSINEE        PTCLDY    39  32  75 E8        30.07S WCI  34
MARSHFIELD     CLOUDY    40  32  73 SE10      30.03S WCI  33
STEVENS POINT  PTCLDY    37  30  76 E8        30.08S WCI  30
WAUPACA        PTCLDY    38  31  76 CALM      30.11S
WAUTOMA        CLOUDY    36  31  82 NE3       30.10
WISC RAPIDS    CLOUDY    39  32  76 E5        30.07R
CAMP DOUGLAS   NOT AVBL
$$

WIZ011>013-019>022-031-037>040-048>050-200900-
NORTHEAST WISCONSIN

CITY           SKY/WX    TMP DP  RH WIND       PRES   REMARKS
ANTIGO         CLOUDY    36  31  80 SE14      30.10S WCI  27
SHAWANO        CLOUDY    34  32  91 NE6       30.13F WCI  29
OCONTO         PTCLDY    28  27  96 CALM      30.16R
STURGEON BAY   CLOUDY    37  33  85 SE8       30.16F WCI  31
GREEN BAY      CLOUDY    35  32  88 NE5       30.13F WCI  31
MANITOWOC      NOT AVBL
APPLETON       CLOUDY    37  28  70 E5        30.10S WCI  34
CLINTONVILLE   CLOUDY    34  30  86 E3        30.11F
OSHKOSH        CLOUDY    34  29  82 E5        30.10F WCI  30
$$

WIZ032>034-041-042-053>061-200900-
SOUTHWEST WISCONSIN

CITY           SKY/WX    TMP DP  RH WIND       PRES   REMARKS
LA CROSSE      CLOUDY    48  38  68 SE6       29.97F
SPARTA         CLOUDY    43  36  76 CALM      30.01F
VIROQUA        CLOUDY    49  38  66 CALM      30.00S
BOSCOBEL       PTCLDY    47  37  68 CALM      30.02S
PRAIRIE DU CHI CLOUDY    51  39  63 E3        30.00S
PLATTEVILLE    CLOUDY    45  40  85 E10       30.03S
$$

WIZ056-057-062-063-064-067-068-200900-
SOUTH CENTRAL WISCONSIN

CITY           SKY/WX    TMP DP  RH WIND       PRES   REMARKS
REEDSBURG      CLOUDY    44  37  77 NE5       30.04S
BARABOO/DELLS  CLOUDY    43  33  70 E5        30.05S
LONE ROCK      NOT AVBL
MINERAL POINT  PTCLDY    50  39  66 SE9       30.03F
MADISON        PTCLDY    44  35  70 SE5       30.06F
MIDDLETON      PTCLDY    39  34  82 SE3       30.07S
WATERTOWN      CLOUDY    40  30  67 E8        30.09S WCI  35
MONROE         CLOUDY    46  39  76 E7        30.05F
JANESVILLE     CLOUDY    41  36  81 E7        30.08R
$$

WIZ051-052-058>065-066-070>072-200900-
SOUTHEAST WISCONSIN

CITY           SKY/WX    TMP DP  RH WIND       PRES   REMARKS
MILWAUKEE      CLOUDY    37  32  82 CALM      30.14S
WAUKESHA         N/A     34  30  86 E5        30.13S WCI  30
MILWAUKEE/TIMM CLOUDY    36  30  80 CALM      30.14S
RACINE         CLOUDY    35  30  82 E3        30.15S
KENOSHA        CLOUDY    36  30  79 E7        30.12F WCI  30
FOND DU LAC    CLOUDY    41  30  65 SE10      30.11S
SHEBOYGAN      CLOUDY    31  28  89 CALM      30.14S
WEST BEND      CLOUDY    32  30  93 CALM      30.13F
JUNEAU         CLOUDY    41  29  62 E10       30.10F
$$

LSZ147-162-200900-
LAKE SUPERIOR

STATION/POSITION TIME  TEMP    WIND        PRES    WAVE
                       AIR SEA DIR/SP/G            HT/PER
                 (UTC) (F)     (DEG/KT/KT) (MB)    (FT/S)
DEVILS ISLAND    0700   36      70/ 10/ 11 1016.4F
PORT WING        0740   34      40/ 11/ 12 1015.2R
SAXON HARBOR     0740          190/  3/  9 1014.9F
$$

LMZ867-665-643>646-200900-
LAKE MICHIGAN

STATION/POSITION TIME  TEMP    WIND        PRES    WAVE
                       AIR SEA DIR/SP/G            HT/PER
                 (UTC) (F)     (DEG/KT/KT) (MB)    (FT/S)
CHAMBERS ISLAND  0740   29     100/  2/  3 1021.3R
NORTHPORT PIER   0740   35     140/  4/  5 1021.7S
SISTER BAY       0705   39     130/ 10/ 15   N/A
ALGOMA LAKESHORE 0725             CALM       N/A
KEWAUNEE LAKESHO 0730   37      CALM  /  4 1020.8R
SHEBOYGAN LAKESH 0700   37      10/  4/  4 1021.2R
PORT WASHINGTON  0730   35     270/  2/  3 1021.7S
MILWAUKEE LAKESH 0730   39      30/  6/  6   N/A
KENOSHA   LAKESH 0700   38        CALM     1020.3
$$

TC  - TEMPERATURE IN CELSIUS
VSB - VISIBILITY IN STATUTE MILES
WCI - WIND CHILL INDEX
HX  - HEAT INDEX





USA.gov is the U.S. government's official web portal to all federal, state and local government web resources and services.